| time (UTC) | temp C | wind direction | speed KPH | gust KPH | rain 1hr cm | rain 24hr cm | rain mn cm | humidity % | barometer mb |
| 20260508023202 | 10 | 81 | 4.8 | 8.0 | 0.00 | 0.00 | 0.00 | 76 | 924.8 |
| 20260508020913 | 11 | 113 | 3.2 | 8.0 | 0.00 | 0.00 | 0.00 | 73 | 925.4 |
| 20260507235107 | 12 | 112 | 6.4 | 12.9 | 0.00 | 0.00 | 0.00 | 72 | 926.1 |
| 20260507225621 | 12 | 159 | 3.2 | 9.7 | 0.00 | 0.00 | 0.00 | 71 | 926.3 |
| 20260507215812 | 12 | 165 | 3.2 | 8.0 | 0.00 | 0.00 | 0.00 | 72 | 926.0 |
| 20260507214416 | 12 | 165 | 3.2 | 8.0 | 0.00 | 0.00 | 0.00 | 72 | 926.0 |
| 20260507213902 | 12 | 165 | 3.2 | 8.0 | 0.00 | 0.00 | 0.00 | 72 | 926.0 |
| 20260507213727 | 12 | 165 | 3.2 | 8.0 | 0.00 | 0.00 | 0.00 | 72 | 926.0 |
| 20260507213114 | 12 | 165 | 1.6 | 3.2 | 0.00 | 0.00 | 0.00 | 72 | 926.0 |
| 20260507205824 | 12 | 273 | 6.4 | 24.1 | 0.00 | 0.00 | 0.00 | 72 | 925.8 |
| 20260507200602 | 13 | 193 | 9.7 | 27.4 | 0.00 | 0.00 | 0.00 | 61 | 925.2 |
| 20260507192734 | 16 | 111 | 14.5 | 25.7 | 0.00 | 0.00 | 0.00 | 51 | 924.4 |
| 20260507181405 | 17 | 93 | 9.7 | 20.9 | 0.00 | 0.00 | 0.00 | 45 | 924.3 |
| 20260507175122 | 17 | 93 | 9.7 | 20.9 | 0.00 | 0.00 | 0.00 | 45 | 924.3 |
| 20260507160005 | 17 | 158 | 4.8 | 22.5 | 0.00 | 0.00 | 0.00 | 40 | 924.3 |
| 20260507155438 | 17 | 158 | 4.8 | 22.5 | 0.00 | 0.00 | 0.00 | 40 | 924.3 |
| 20260507133754 | 18 | 226 | 3.2 | 12.9 | 0.00 | 0.00 | 0.00 | 40 | 924.9 |
| 20260507133446 | 18 | 226 | 3.2 | 12.9 | 0.00 | 0.00 | 0.00 | 40 | 924.9 |
| 20260507133006 | 18 | 226 | 8.0 | 30.6 | 0.00 | 0.00 | 0.00 | 40 | 924.9 |
| 20260507132022 | 18 | 347 | 4.8 | 12.9 | 0.00 | 0.00 | 0.00 | 47 | 924.7 |
| 20260507111823 | 17 | 107 | 1.6 | 6.4 | 0.00 | 0.00 | 0.00 | 49 | 925.6 |
| 20260507110227 | 17 | 107 | 4.8 | 16.1 | 0.00 | 0.00 | 0.00 | 49 | 925.6 |
| 20260507105317 | 17 | 107 | 4.8 | 16.1 | 0.00 | 0.00 | 0.00 | 49 | 925.6 |
| 20260507081802 | 8 | 13 | 3.2 | 12.9 | 0.00 | 0.00 | 0.00 | 87 | 925.6 |
| 20260507080620 | 8 | 13 | 3.2 | 12.9 | 0.00 | 0.00 | 0.00 | 87 | 925.6 |
| 20260507055326 | 8 | 336 | 1.6 | 8.0 | 0.00 | 0.00 | 0.00 | 87 | 925.5 |
| 20260507050306 | 8 | 345 | 1.6 | 4.8 | 0.00 | 0.00 | 0.00 | 85 | 925.5 |